Wind_Speed
40 41 40 41 42 42 42 42 42 43 44 44 44 42 41 40 39 38 35 34 33 32 31 31 30 30 30 30 29 29 29 30 30 29 28 28 28 28 26 23 21 20 21 22 22 22 22 23 25 27 27 26 25 25 24 24 24 24 24 24 24 25 25 26 27 28 29 30 31 31 32 32 32 32 32 32 32 31 31 30 30 29 28 27 27 27 27
41 41 41 41 42 42 42 42 42 43 43 43 42 41 40 40 39 38 36 35 34 32 32 32 32 31 31 31 30 29 29 30 30 30 30 29 29 29 26 24 23 22 22 22 22 22 22 23 25 27 28 27 27 27 28 28 28 27 26 25 25 26 26 27 28 29 30 31 32 32 32 32 32 32 32 32 32 31 31 30 30 28 28 27 27 27 28
40 41 41 42 42 42 42 41 42 42 43 43 43 42 41 40 40 39 38 37 36 34 33 33 32 32 31 31 30 29 28 28 28 29 29 28 28 27 27 26 25 24 23 23 23 23 24 25 26 28 29 29 30 32 32 32 32 30 28 27 27 28 28 28 29 30 31 32 32 32 32 31 32 32 32 32 32 32 31 30 29 28 28 28 27 27 27
39 40 41 41 41 41 40 40 41 41 43 44 44 43 42 41 40 39 39 38 37 35 34 33 33 32 31 31 30 29 27 27 27 26 26 26 27 27 28 27 26 25 26 26 25 25 26 26 27 30 32 32 33 34 35 35 34 32 30 29 29 29 29 30 30 31 32 32 32 31 31 31 32 32 32 32 32 32 31 30 29 28 28 27 27 26 26
38 39 40 40 39 39 40 40 41 41 42 43 43 43 42 41 41 40 39 38 37 36 35 34 33 33 32 31 30 29 28 28 27 27 28 28 29 29 28 28 28 28 27 27 26 25 26 28 30 32 33 33 33 33 33 34 35 33 30 30 31 30 30 31 31 32 32 32 31 31 31 31 32 32 32 32 32 31 30 29 28 27 27 26 25 25 24
37 37 38 38 38 39 40 40 40 40 41 41 42 42 41 41 40 40 39 38 37 37 36 35 34 33 32 31 31 31 31 30 29 29 29 30 31 30 27 27 28 27 26 27 26 26 27 29 30 31 31 32 31 30 30 31 33 33 32 32 32 32 32 32 32 32 31 31 31 30 31 31 31 31 32 31 31 30 28 28 27 25 24 23 23 22 22
36 37 37 37 38 39 39 40 40 40 40 40 40 40 40 40 40 39 39 38 38 37 37 36 35 34 34 33 33 32 32 32 31 30 30 31 31 29 25 25 27 27 28 28 28 28 28 29 31 31 30 30 30 29 29 29 31 33 35 34 33 34 33 32 32 31 30 30 30 30 30 30 30 31 31 30 29 28 27 25 24 22 21 21 21 21 22
37 38 37 37 38 39 40 40 40 39 39 39 40 40 40 39 39 39 39 39 39 38 38 37 37 36 35 34 34 33 33 32 31 30 30 30 29 26 25 27 29 28 28 28 27 28 29 30 31 31 30 30 30 30 29 28 30 33 36 35 34 34 34 33 32 30 29 29 28 28 29 29 29 30 29 29 27 26 24 23 21 21 21 21 22 23 24
37 38 37 36 36 38 39 40 40 40 40 40 40 39 39 39 38 39 40 40 40 39 38 38 37 36 36 35 35 34 33 32 32 30 30 29 28 27 27 27 27 26 25 25 25 27 29 30 31 31 31 31 31 31 30 29 30 31 34 35 34 34 34 32 31 29 28 27 27 27 28 28 28 28 28 27 25 24 22 21 21 21 21 22 23 25 26
35 36 36 35 34 35 37 39 40 41 40 40 40 39 39 39 39 40 41 40 40 39 37 37 36 36 36 36 34 34 33 33 32 31 30 30 28 28 27 26 25 25 25 26 26 26 27 29 30 31 31 32 32 31 30 30 30 31 33 33 33 33 32 32 30 28 26 26 26 27 27 27 27 26 26 25 23 22 21 21 21 22 23 24 26 27 27
34 35 35 36 34 32 34 37 39 40 40 40 41 40 40 40 41 40 40 39 37 36 36 35 35 36 36 34 33 32 32 32 32 32 31 31 29 28 27 26 26 27 28 28 28 28 28 29 29 30 31 31 31 30 30 30 30 32 33 33 32 31 30 30 28 25 24 24 25 26 26 25 25 24 24 23 22 21 21 22 22 23 25 26 27 27 27
34 34 36 37 36 32 31 33 36 37 38 38 39 39 39 40 39 38 38 37 36 35 35 35 35 34 33 31 30 30 30 30 31 32 32 31 30 29 28 29 29 29 29 30 31 30 30 30 31 31 31 31 31 31 31 31 31 32 32 31 30 29 29 27 25 23 23 24 25 24 24 23 23 22 22 22 22 21 22 23 24 25 26 27 27 26 26
35 35 36 37 38 35 30 29 32 33 35 36 36 35 35 35 35 34 34 34 34 34 34 33 33 32 30 30 30 31 29 29 29 30 30 30 30 30 31 31 30 30 31 31 31 29 28 28 29 30 31 32 32 31 32 32 32 32 32 30 28 28 27 25 23 23 23 23 23 22 22 22 21 22 22 22 22 22 23 24 25 26 27 27 26 25 24
34 35 35 36 37 37 33 29 29 30 31 32 31 31 31 32 32 32 32 32 32 32 32 32 32 31 31 31 32 32 31 30 31 31 31 31 32 32 32 32 31 31 32 31 29 26 26 27 28 29 31 31 31 32 33 33 32 31 29 28 27 26 25 24 23 23 22 21 21 21 21 21 21 22 23 23 22 22 24 25 26 27 27 26 24 23 22
33 34 35 34 34 35 35 32 30 28 28 28 27 28 30 31 31 32 32 31 31 30 30 30 30 30 30 30 31 32 33 34 33 33 32 33 33 33 33 33 32 32 31 29 27 26 26 27 28 29 28 28 30 32 31 29 28 28 27 26 25 24 24 24 23 22 20 19 20 20 21 22 22 23 23 23 23 23 24 26 27 27 25 24 23 22 21
33 34 36 33 30 29 30 31 30 28 28 29 28 28 29 30 30 30 30 30 29 28 28 27 27 27 27 28 30 32 35 36 35 34 34 34 34 34 33 32 32 32 30 28 26 25 27 29 29 28 27 26 26 26 25 24 25 27 27 26 25 25 24 23 21 19 18 19 19 21 22 23 23 23 24 24 24 24 25 26 26 25 23 22 21 20 21
29 33 34 32 28 26 26 27 27 27 28 29 29 29 30 30 30 29 29 30 29 28 27 26 26 25 25 27 30 32 33 35 35 34 34 34 33 33 32 32 32 32 30 27 25 24 26 28 28 25 23 23 23 23 24 25 26 27 26 25 24 23 20 18 18 18 18 18 20 22 23 24 24 24 25 24 23 24 25 25 25 23 21 20 20 20 21
22 28 32 32 29 27 26 26 27 28 28 28 29 30 31 31 31 31 31 31 30 30 29 27 26 25 24 26 30 33 34 34 33 33 33 32 32 32 32 33 33 31 29 27 24 23 24 26 25 21 19 20 22 24 25 25 26 26 23 22 21 19 17 17 17 18 18 19 21 22 23 24 24 24 23 23 23 24 24 24 22 21 20 19 19 19 20
17 21 25 28 29 28 28 28 28 29 29 29 30 30 31 32 32 33 33 32 32 31 30 28 26 25 24 26 29 31 33 33 33 33 34 34 33 34 34 34 33 31 29 26 23 22 23 24 23 20 21 23 24 25 25 24 23 22 20 18 18 17 17 17 17 18 19 20 21 21 22 22 22 22 21 22 23 23 23 21 20 19 18 18 18 19 19
18 18 19 22 25 28 29 29 29 28 29 29 29 30 31 32 33 34 36 36 35 34 32 30 28 26 25 25 25 26 28 29 30 32 33 33 33 33 33 32 31 29 27 22 20 21 22 22 22 22 23 23 21 20 20 20 19 18 17 17 17 17 17 17 17 18 19 20 20 21 21 21 21 21 22 23 22 21 20 20 19 17 17 17 18 19 19
18 20 21 23 25 27 28 28 28 28 28 27 28 29 29 30 30 32 34 36 37 37 35 33 30 28 26 24 23 23 24 26 27 28 29 30 30 29 29 29 28 27 24 20 18 19 20 21 21 22 23 21 19 17 17 17 16 16 15 15 16 16 17 18 19 19 20 21 21 21 21 21 21 22 22 22 21 20 19 18 17 16 16 17 18 19 20
19 21 22 24 25 26 27 27 27 27 27 27 26 27 27 26 26 27 29 31 33 35 35 34 31 29 26 25 24 24 24 25 26 27 27 27 28 27 27 27 26 25 22 19 17 18 19 20 21 23 23 22 21 20 19 17 16 15 15 16 17 18 18 19 20 20 21 21 21 21 21 22 22 23 22 20 19 19 18 17 16 15 16 17 18 19 20
19 20 22 23 24 25 26 27 27 27 26 26 26 26 25 24 24 24 26 28 30 32 33 33 32 30 28 27 26 26 26 27 27 27 27 27 27 26 26 26 26 24 22 18 17 17 18 19 20 22 22 22 21 19 18 17 16 17 17 18 18 19 19 19 20 20 20 20 20 21 22 23 23 22 20 19 18 18 17 16 15 15 16 17 18 19 21
19 20 22 23 24 25 26 26 26 26 25 25 25 25 24 24 23 23 25 27 30 32 34 34 33 32 31 30 30 30 30 29 29 29 29 28 27 26 26 26 25 24 20 18 18 19 19 20 20 20 19 19 18 18 18 17 18 18 18 19 19 19 19 19 20 20 20 20 21 21 22 23 22 21 19 18 18 17 16 15 15 16 17 18 19 20 21
20 20 21 22 24 25 26 26 26 26 25 26 26 25 24 23 23 23 24 26 28 31 33 35 35 34 34 33 32 32 32 31 30 30 30 28 27 26 25 25 24 21 20 19 20 20 20 19 18 18 17 17 18 18 18 18 18 19 19 19 19 19 19 20 20 20 20 21 21 22 23 22 21 19 18 18 17 16 15 15 15 17 18 19 20 21 22
19 19 20 21 23 25 25 26 26 25 25 25 25 25 24 23 23 23 25 26 28 30 32 34 35 35 35 34 33 32 32 31 29 29 29 28 27 26 26 25 23 21 20 21 21 20 19 18 18 17 17 18 18 19 19 19 19 19 18 18 18 18 19 20 20 21 21 22 22 23 22 21 19 18 18 17 17 16 15 16 16 17 19 20 21 22 23
18 18 18 19 21 23 23 24 23 23 23 24 24 25 25 24 24 24 25 26 28 31 32 33 34 34 34 34 33 32 32 31 29 28 28 28 28 28 28 26 23 21 22 22 21 21 20 19 19 18 18 18 19 19 19 20 20 19 18 17 18 18 19 20 21 22 23 23 23 22 21 19 18 17 17 17 16 16 16 16 17 18 20 21 22 23 23
16 16 16 17 19 20 21 21 21 21 22 23 24 25 25 25 25 25 26 26 27 30 32 33 33 34 34 34 33 33 32 31 29 28 26 25 26 27 26 24 23 23 24 23 22 22 22 21 21 21 20 19 19 20 21 21 21 19 18 19 20 20 21 22 23 23 24 23 22 21 19 18 17 17 17 17 17 16 16 17 18 20 21 22 22 23 23
14 15 15 17 18 19 20 21 22 22 22 22 23 24 25 25 25 25 25 25 26 28 31 33 34 34 34 32 32 32 32 31 30 28 25 22 23 24 24 24 25 25 24 24 24 23 23 23 23 23 22 22 22 22 23 22 21 20 21 21 22 23 23 24 24 24 23 22 21 19 18 18 18 17 17 17 17 16 17 18 19 20 21 22 23 23 23
15 14 14 16 18 20 21 22 22 22 22 22 23 24 24 23 23 23 23 22 23 26 30 32 32 32 31 31 31 31 29 28 28 28 26 24 23 24 25 25 25 24 24 25 25 25 25 26 26 26 26 25 24 23 22 22 22 22 23 23 24 24 25 25 24 23 22 21 19 18 18 18 18 18 18 17 17 17 17 19 20 21 21 22 23 23 23
15 14 13 13 13 16 19 21 21 21 20 21 22 22 22 22 22 22 21 20 19 22 28 31 31 30 29 30 31 30 28 27 27 27 27 26 25 26 27 26 25 25 26 27 29 29 29 28 27 26 24 23 22 21 22 22 23 24 24 25 25 25 25 25 24 23 21 20 19 18 18 18 18 18 18 17 17 17 18 19 20 21 22 22 23 23 23
17 16 15 13 12 13 14 16 18 19 20 21 21 21 21 21 20 19 19 18 18 20 24 28 29 28 27 28 29 30 29 29 29 28 27 25 23 24 25 25 23 22 23 25 26 27 26 24 22 20 19 19 20 21 22 23 24 25 25 25 25 25 25 25 23 22 20 19 19 19 19 19 19 18 18 17 18 18 19 20 20 21 22 22 22 22 22
18 18 17 17 16 15 14 15 16 17 19 19 19 19 18 18 18 18 18 18 19 20 21 24 26 26 25 25 26 27 29 31 31 31 29 27 23 21 22 21 20 18 19 22 24 24 23 21 19 19 20 20 21 22 22 23 24 25 25 25 26 26 25 24 22 21 20 19 19 20 20 19 19 18 18 18 18 19 19 20 21 21 21 21 21 21 20
20 20 20 19 19 19 18 18 18 19 19 20 20 19 19 18 18 19 20 21 21 21 21 22 24 25 25 24 23 25 28 30 29 28 29 28 26 25 24 24 23 22 21 23 25 26 25 24 23 23 22 22 22 22 22 22 24 25 25 26 26 25 24 23 22 21 20 20 20 20 20 19 19 18 18 18 18 19 20 20 20 20 21 21 20 20 18
24 25 24 24 23 23 22 22 22 22 22 22 22 22 22 22 21 21 21 22 23 23 23 23 24 25 26 26 25 26 28 28 26 26 27 28 27 27 27 27 26 24 23 24 26 28 28 27 27 26 25 24 23 22 22 23 24 25 26 26 26 25 24 23 21 20 20 20 20 20 20 19 19 19 18 18 19 19 19 20 20 20 20 19 19 18 17
27 28 28 28 28 28 27 27 26 26 26 25 25 25 25 25 25 25 24 24 24 24 25 25 25 26 27 27 27 27 28 28 26 26 27 28 28 28 28 28 28 26 25 25 26 28 29 29 28 27 26 25 23 23 23 24 25 26 26 25 25 24 23 22 21 21 21 21 21 20 20 19 19 19 18 18 18 19 19 19 19 18 18 18 17 16 15
24 26 28 29 31 31 31 31 31 30 30 30 29 28 28 27 28 28 27 27 27 27 27 27 27 27 28 28 28 29 30 31 30 30 30 30 30 29 29 29 28 28 27 27 27 28 29 29 28 27 27 26 25 24 24 25 25 25 25 25 24 24 23 22 21 21 22 21 21 20 19 19 19 18 18 18 18 18 18 18 17 17 17 16 16 15 14
17 19 21 24 27 30 31 32 33 33 34 33 33 33 32 31 31 31 30 30 30 30 29 29 29 29 29 29 30 30 31 31 31 31 31 31 31 30 30 29 29 29 30 30 29 29 30 30 28 28 28 28 26 25 26 26 26 26 25 25 24 24 23 22 22 22 22 21 21 20 19 19 18 18 18 18 18 17 17 16 16 16 15 15 14 13 13
15 15 16 17 20 22 24 27 29 31 33 34 35 35 35 34 34 34 34 33 32 32 32 32 31 31 31 31 31 31 31 31 31 31 31 32 31 31 31 31 31 32 33 32 29 28 30 31 30 29 29 28 27 27 27 27 27 26 25 25 24 23 23 23 23 22 22 21 20 19 19 18 18 18 18 17 17 16 16 15 15 14 14 13 13 12 12
12 13 13 14 15 16 18 20 22 24 27 30 32 34 35 36 36 36 36 36 35 35 35 35 34 33 33 33 33 34 34 34 33 34 34 35 34 33 33 33 32 33 33 32 29 29 30 30 30 29 29 28 27 27 27 27 26 26 25 25 24 24 23 23 23 22 21 21 20 19 19 18 18 18 17 16 15 15 14 14 13 13 12 12 12 13 13
9 10 10 11 12 13 14 15 17 18 20 22 25 27 30 33 35 36 37 37 37 36 36 37 37 35 34 34 35 35 36 36 36 35 36 36 36 34 33 32 33 33 33 31 30 30 30 30 29 28 28 27 27 27 26 26 26 25 25 25 24 24 24 23 22 22 21 21 20 20 19 18 18 17 16 15 14 13 13 13 13 12 12 12 13 14 14
7 8 8 9 11 12 13 14 15 16 17 18 19 21 23 26 29 32 34 36 37 38 37 37 37 37 36 36 36 36 36 36 36 35 34 35 36 35 34 34 34 34 33 32 30 30 30 29 28 27 27 27 27 26 26 25 25 25 26 25 25 24 24 23 22 22 22 21 21 20 19 18 17 17 16 15 14 13 13 13 13 13 14 14 14 15 16
7 7 8 9 11 12 13 14 15 16 16 17 18 19 19 20 22 24 27 31 34 36 37 38 38 37 36 35 35 36 36 37 36 35 34 34 35 35 35 34 34 33 32 31 30 30 30 29 28 27 27 27 26 26 25 25 25 25 26 26 25 25 24 23 22 22 23 22 22 21 19 18 17 16 16 15 15 14 14 14 14 15 15 16 16 17 17
7 8 9 11 12 13 14 15 16 16 16 17 18 19 19 19 20 21 22 24 27 29 32 34 36 37 37 36 35 34 34 35 35 35 34 34 34 34 34 33 32 31 31 30 30 30 30 29 28 27 28 27 26 26 25 25 25 26 27 27 26 25 24 24 24 24 24 23 22 20 19 18 18 17 16 16 16 16 16 16 16 16 17 17 18 18 19
9 10 11 13 13 13 13 13 13 13 13 14 15 16 17 18 18 19 20 21 22 24 26 28 31 33 35 35 35 34 34 35 35 35 35 33 32 32 33 33 32 31 31 30 30 30 30 29 28 28 28 27 27 26 26 25 26 26 27 27 26 25 25 25 25 25 24 23 21 20 20 20 19 18 18 18 18 18 18 18 18 18 18 19 20 21 21
11 11 12 11 10 9 9 9 9 9 10 11 12 13 14 15 16 17 18 20 21 22 23 25 27 29 32 34 35 35 35 35 35 35 35 34 33 32 32 32 31 31 30 30 30 29 29 29 28 28 27 27 27 27 26 26 27 27 27 27 26 26 26 26 26 25 24 23 22 22 22 21 21 20 20 20 20 20 20 20 20 20 21 22 23 23 24
11 10 10 9 7 6 6 6 7 8 9 10 11 12 13 14 15 16 17 18 20 21 23 24 25 27 29 32 34 34 34 33 33 33 33 33 31 30 29 29 29 28 29 29 30 30 30 29 28 28 28 28 27 27 27 27 28 28 28 27 27 27 28 28 27 26 25 24 23 23 23 23 22 22 22 22 22 22 23 23 23 23 24 25 26 27 28
8 8 8 7 6 5 6 6 7 7 8 9 11 12 13 14 14 13 14 16 18 20 22 23 25 26 27 28 30 32 32 33 33 32 31 30 29 28 28 27 27 27 28 29 29 29 29 29 29 28 28 27 27 27 28 28 28 28 28 28 28 28 29 28 27 26 26 25 24 24 24 24 24 24 24 24 25 25 25 26 26 27 28 29 30 31 32
6 6 7 6 5 5 6 6 6 7 8 8 9 10 11 12 12 11 11 13 15 17 19 21 22 24 25 26 26 28 29 30 30 30 29 28 28 28 27 27 27 28 28 28 28 28 28 28 28 28 27 26 26 27 28 28 28 28 28 29 29 29 29 28 28 27 27 26 25 25 26 26 27 27 27 27 28 28 29 29 29 30 32 33 34 35 36
5 6 6 6 5 5 6 6 6 6 6 6 7 8 8 9 9 9 8 9 10 11 13 14 16 19 21 22 23 24 25 26 27 27 26 26 26 27 27 27 28 28 28 27 27 26 26 27 27 26 26 26 27 28 28 28 28 29 29 29 30 30 29 29 29 29 28 27 27 28 28 29 29 30 30 31 31 32 32 33 33 34 36 37 38 38 39
5 6 7 6 6 5 5 5 5 5 5 5 6 7 7 7 6 6 6 6 6 7 8 10 11 14 16 18 19 20 21 22 23 23 24 24 25 25 25 26 26 26 26 26 25 25 25 26 26 26 26 27 28 28 28 29 29 30 30 30 30 30 30 31 31 30 30 30 30 30 30 31 31 32 33 33 34 35 35 36 37 38 39 40 41 41 42
4 5 6 6 7 6 6 6 5 4 4 4 5 5 6 6 5 5 5 5 5 5 6 8 10 12 13 15 16 17 17 18 18 19 20 21 22 23 24 24 24 24 24 24 25 25 25 25 26 26 27 27 28 28 28 29 29 30 30 30 31 31 32 32 32 32 31 31 32 32 32 33 34 34 35 36 37 38 39 40 41 42 42 43 44 44 45
Wind_Direction
201 203 205 206 208 209 209 209 210 210 212 215 217 219 220 221 223 224 226 228 227 226 226 225 223 221 219 218 219 220 220 221 222 224 228 231 233 237 244 245 243 243 242 241 243 248 248 248 250 252 253 256 259 261 265 267 268 269 270 270 268 266 266 268 270 273 276 279 282 286 291 296 300 303 304 306 308 310 311 310 309 308 308 309 311 312 313
201 203 204 205 207 209 209 209 209 210 213 216 219 221 221 222 223 224 226 228 228 227 227 226 225 225 223 220 218 218 218 219 220 224 228 233 236 241 247 250 251 252 249 248 250 251 251 254 256 255 257 262 263 263 266 269 270 271 271 269 265 263 263 265 268 271 273 277 281 286 291 296 300 302 304 306 308 310 310 309 308 308 308 309 311 312 313
201 203 204 205 206 208 209 209 209 210 212 215 218 220 221 222 223 224 225 227 228 227 227 227 227 227 227 226 225 225 224 223 224 227 231 235 241 246 251 254 256 257 257 256 255 255 258 262 264 263 265 267 266 266 268 269 269 270 269 266 261 258 260 262 264 268 271 275 281 286 292 297 300 302 303 306 308 309 309 308 307 308 309 310 310 311 312
202 203 205 206 206 208 209 209 209 210 212 214 216 219 221 222 224 224 225 227 229 229 229 229 230 230 231 232 232 233 233 233 234 236 239 242 246 250 254 256 259 261 260 256 254 258 264 268 269 269 269 269 269 269 269 267 266 266 264 260 256 255 256 259 262 266 270 276 282 287 293 298 300 301 304 306 308 308 308 307 307 308 308 309 310 310 311
202 204 206 206 207 208 209 209 209 210 212 215 217 218 220 223 224 226 227 228 229 231 232 232 233 234 234 235 237 238 239 241 243 244 246 248 250 253 254 256 259 258 253 250 253 260 266 268 268 269 270 270 270 270 271 267 262 260 259 256 254 253 254 257 261 265 270 277 282 288 295 298 299 301 304 307 308 308 307 307 307 308 308 309 310 311 312
204 206 208 207 208 209 210 211 210 210 212 214 216 218 220 222 225 227 228 229 230 231 232 234 236 238 238 238 238 239 240 242 244 246 248 249 251 252 249 248 250 246 242 247 257 264 267 267 268 268 270 271 270 271 274 271 264 257 253 252 253 253 253 255 260 265 271 276 283 290 295 296 298 301 305 307 307 307 307 307 308 309 310 311 313 313 314
205 208 209 210 210 210 212 212 212 212 213 214 216 218 220 222 225 227 229 230 231 232 232 233 234 236 239 239 239 240 241 242 244 246 247 249 252 253 246 239 238 238 242 253 264 267 267 267 268 269 270 271 272 274 273 274 271 259 248 247 251 251 252 254 259 264 271 277 284 290 293 295 298 302 305 306 306 306 307 308 310 311 313 314 314 315 316
205 207 209 211 212 211 212 213 213 214 214 215 216 218 220 222 224 226 228 229 231 232 232 233 234 235 237 239 241 242 243 244 245 246 247 249 251 249 241 236 239 246 255 262 265 264 263 264 265 266 269 271 273 276 274 273 273 260 244 240 246 247 249 253 257 263 271 278 285 290 292 295 299 302 304 305 305 306 307 309 310 311 313 314 316 317 317
207 208 209 212 213 213 213 213 214 215 215 216 217 218 220 222 223 226 228 228 230 231 233 234 235 236 236 238 240 243 244 245 246 246 247 248 248 246 244 247 252 258 263 263 262 261 261 261 262 265 268 270 272 275 274 273 271 259 242 235 239 244 247 252 257 264 272 279 286 290 292 295 298 301 303 303 304 305 306 307 308 311 314 316 317 317 316
212 211 211 212 214 214 214 214 214 214 215 216 217 218 220 222 223 225 228 229 230 232 234 236 237 239 239 239 240 242 243 245 246 248 249 250 251 252 254 257 260 262 264 265 267 267 265 264 266 267 268 270 270 273 274 272 267 257 244 236 237 242 246 251 257 265 273 280 286 289 292 295 297 299 300 301 301 303 305 307 309 312 315 317 317 316 315
215 214 213 213 212 213 214 214 215 215 215 216 217 218 220 222 223 226 228 230 232 233 235 236 238 240 242 242 242 242 242 244 245 247 249 251 253 255 257 258 260 263 267 270 271 271 270 270 271 269 267 268 269 271 274 271 261 249 241 237 238 241 246 252 258 265 273 280 285 288 290 293 295 296 297 298 299 302 305 308 311 314 316 316 315 314 314
213 213 214 214 212 212 214 215 215 217 218 219 220 220 222 224 226 229 231 232 234 234 235 236 237 238 241 242 244 244 244 244 245 245 247 249 250 252 253 256 260 265 269 272 273 273 272 272 270 268 265 265 266 268 271 269 259 248 240 237 238 242 247 252 257 265 274 279 283 286 288 291 293 294 296 298 299 302 306 310 312 315 316 315 314 314 314
211 210 212 213 212 212 214 215 216 219 221 222 223 224 226 228 230 232 233 234 235 236 236 236 237 238 238 237 239 241 240 240 241 242 243 243 245 248 252 256 261 266 270 273 272 271 269 268 266 265 264 264 265 267 267 262 253 245 238 236 238 243 247 253 260 267 273 276 279 283 287 290 291 293 296 299 300 302 307 310 313 315 315 314 313 312 313
213 211 211 213 213 212 214 215 216 219 223 224 226 227 229 231 232 233 235 236 237 239 239 239 239 239 238 236 236 237 237 237 238 239 240 243 246 250 254 257 262 268 270 271 269 266 264 264 263 264 265 265 264 262 259 254 246 239 235 235 238 243 248 256 262 266 269 273 278 283 287 289 290 292 297 300 300 302 307 310 313 314 313 311 310 311 313
214 211 211 212 212 213 218 221 221 222 224 225 226 227 229 231 231 232 233 234 236 237 238 239 239 238 237 235 233 233 234 236 238 240 243 247 251 254 257 260 264 267 269 268 266 263 261 261 261 263 265 265 262 255 250 246 243 239 236 235 238 244 251 257 261 264 268 274 279 285 287 288 288 291 296 299 300 302 306 310 312 312 310 309 309 312 316
217 213 211 211 210 212 219 223 225 227 229 229 230 230 230 231 231 231 232 232 232 233 235 237 238 238 237 235 233 232 232 235 238 241 245 250 254 258 261 263 265 267 267 267 266 263 260 259 260 262 262 260 256 251 246 245 244 241 239 239 242 247 252 257 262 266 271 276 282 285 287 287 287 290 295 298 299 301 305 309 310 309 307 307 310 314 317
219 216 214 215 215 215 219 221 222 226 228 229 231 232 232 232 232 231 231 231 230 231 234 236 238 238 236 234 233 234 235 235 237 241 245 250 254 257 259 261 263 265 266 268 268 265 261 260 259 259 256 252 249 247 247 248 245 242 242 244 245 247 253 260 266 269 273 279 283 284 285 286 287 290 294 296 297 300 305 308 307 305 305 307 311 314 317
218 218 219 221 221 219 220 220 221 223 225 225 227 229 230 231 231 231 232 232 233 233 234 235 237 238 235 231 231 234 237 237 239 242 245 248 252 255 257 260 262 263 263 265 266 262 259 258 258 258 257 253 248 244 243 243 242 240 241 240 240 247 258 264 267 270 275 279 282 283 285 286 288 290 292 293 296 301 305 305 303 303 304 307 311 315 318
215 215 218 222 223 224 224 224 223 224 226 227 228 229 230 232 234 235 236 236 236 235 235 235 236 236 233 228 228 232 236 239 241 244 247 250 253 255 257 259 260 260 261 263 262 256 252 252 253 256 258 253 243 237 235 235 233 233 235 237 241 251 260 262 265 270 275 279 282 285 286 287 288 289 290 293 298 301 302 301 300 301 304 308 313 317 320
214 209 209 212 215 217 220 221 222 223 225 228 231 233 235 236 238 239 239 238 236 235 234 235 233 232 231 230 228 230 234 237 241 243 246 248 250 252 254 255 256 257 258 258 255 252 250 248 247 249 251 246 236 229 229 231 232 234 238 243 248 254 259 262 267 271 275 279 282 284 286 287 288 289 291 295 298 299 298 297 297 300 305 311 316 319 321
214 210 207 206 207 209 212 215 218 222 225 228 231 233 234 236 238 239 239 236 234 233 232 231 229 228 230 231 230 229 231 234 236 238 240 241 243 245 247 249 251 252 251 249 249 250 250 247 243 244 247 246 243 241 242 245 248 249 250 251 253 257 260 264 267 270 275 279 281 282 284 286 287 289 293 296 297 295 294 294 296 301 308 314 317 320 321
217 215 213 212 212 214 216 218 221 223 225 227 228 228 228 229 231 233 232 230 228 227 226 224 223 225 228 230 229 229 230 232 233 234 235 236 237 240 242 245 246 245 243 244 247 248 247 245 242 242 245 248 250 252 254 256 257 257 256 256 258 259 262 265 269 273 276 278 278 280 282 284 287 290 293 293 292 291 290 292 298 305 311 315 317 319 321
221 222 223 223 224 225 226 227 227 227 228 228 227 225 224 225 226 227 226 224 222 220 219 218 220 223 226 228 229 230 231 233 235 236 237 238 238 240 242 242 239 236 237 244 246 243 240 240 239 240 244 247 250 253 256 257 257 257 257 257 258 261 264 268 271 274 275 275 276 278 280 284 288 290 289 287 286 287 289 293 300 307 311 314 316 319 322
225 225 227 228 228 229 230 231 230 230 229 229 227 225 224 225 225 227 226 225 223 221 219 219 220 222 224 225 227 230 233 237 239 240 241 241 242 243 243 238 231 230 236 242 240 236 234 235 238 241 244 247 250 253 254 254 255 255 257 259 262 265 268 270 271 272 272 273 274 277 282 285 286 285 283 282 283 286 289 295 301 307 310 313 317 320 323
230 229 230 231 231 230 229 229 229 229 230 230 229 227 226 227 228 229 230 229 227 225 223 222 221 221 222 224 227 231 234 236 239 241 242 242 243 244 240 232 227 229 236 240 237 234 234 236 239 244 247 249 252 254 254 255 256 257 260 263 265 266 267 267 267 268 269 271 275 279 283 283 281 278 278 280 283 285 289 294 300 306 310 315 319 322 324
234 234 235 235 233 229 227 226 227 228 229 230 230 228 227 228 230 232 232 231 230 228 227 224 223 223 224 225 229 234 236 236 237 239 240 239 240 238 231 224 224 229 234 235 236 236 238 240 242 244 247 251 253 254 255 255 256 258 260 263 264 264 264 264 264 266 269 273 277 279 279 276 274 274 277 280 282 284 288 294 301 307 313 317 321 322 323
234 235 234 231 227 224 223 224 226 227 228 228 227 226 226 229 233 236 236 234 231 229 228 226 225 226 227 228 230 234 235 235 235 236 237 238 237 231 224 221 224 227 229 230 233 237 239 239 240 244 249 253 253 253 253 254 255 257 258 260 261 262 263 264 266 268 271 274 275 275 272 271 271 274 277 279 279 282 287 295 303 309 314 318 320 321 321
230 230 228 225 222 222 222 223 224 225 225 224 223 225 228 231 235 237 237 235 232 229 227 225 225 225 227 228 229 231 232 234 233 232 231 234 233 227 223 222 224 225 226 228 231 234 236 237 239 244 249 250 251 252 253 252 253 255 257 259 261 263 265 266 268 269 271 272 272 270 268 269 272 274 275 275 276 281 289 297 304 310 314 317 319 319 319
223 223 224 225 226 225 226 226 225 224 224 224 226 229 231 232 234 236 237 238 234 228 224 222 222 223 223 224 226 228 230 232 232 227 225 226 227 224 224 225 224 224 226 229 232 233 234 235 239 244 247 249 251 252 251 250 252 256 258 260 261 263 264 265 266 268 269 269 268 266 267 269 271 272 272 272 276 282 291 298 305 310 314 316 317 317 317
218 218 224 230 231 228 227 226 226 226 226 226 227 227 228 229 231 234 235 237 233 222 215 215 218 220 221 222 224 225 227 229 228 226 224 224 224 223 223 224 225 226 231 235 236 235 236 239 244 247 248 249 249 248 248 250 254 257 257 258 260 261 262 264 265 267 267 265 264 264 266 267 269 269 269 272 277 284 292 299 305 310 313 315 315 315 315
213 215 221 228 229 226 224 222 220 220 221 222 223 224 225 227 230 230 230 232 225 210 204 206 210 212 216 220 222 223 222 220 218 218 220 223 226 228 229 230 229 230 234 239 240 239 239 242 244 243 243 243 244 246 250 254 256 256 257 258 259 261 262 264 265 264 263 262 262 263 264 266 266 267 269 273 279 285 293 300 306 311 313 313 314 315 316
214 218 221 221 221 220 221 220 218 215 214 215 218 220 223 225 224 222 224 227 221 207 201 202 204 207 212 217 219 220 219 218 218 220 222 225 226 228 228 226 223 222 224 227 229 230 230 231 233 236 240 245 248 251 254 255 255 256 257 259 260 262 262 263 262 261 260 260 260 261 263 264 265 267 270 274 280 288 296 303 308 310 312 313 314 315 316
226 228 228 227 225 223 222 221 220 217 214 212 213 216 220 221 218 215 217 222 222 216 209 205 204 205 210 215 218 218 219 223 225 226 226 227 227 227 227 226 224 221 217 215 217 218 221 228 240 250 253 254 253 253 253 254 254 256 257 258 259 260 260 260 259 258 257 257 258 260 261 262 263 266 270 276 284 292 299 304 308 310 312 313 314 314 314
239 239 238 237 235 233 230 227 225 223 221 219 218 219 222 223 221 217 215 218 222 223 219 215 212 210 211 215 217 217 220 224 224 220 219 223 228 231 234 237 237 235 230 225 224 226 232 242 254 259 257 254 254 254 253 252 252 253 254 256 257 258 258 257 256 255 255 256 257 258 259 260 262 266 271 279 288 295 301 304 307 310 311 312 313 313 313
246 245 245 244 243 242 240 237 235 232 230 229 228 227 227 228 228 225 222 220 222 224 223 222 220 219 219 221 221 220 222 225 222 215 214 221 226 230 234 238 240 240 237 233 233 236 243 250 255 257 257 257 259 257 254 250 248 249 252 253 254 255 255 254 253 253 254 255 256 256 257 259 262 267 274 283 290 296 301 304 307 309 311 312 313 313 313
248 248 248 248 247 247 245 244 243 241 240 238 237 235 234 233 233 232 231 229 227 226 226 225 224 223 224 226 227 226 227 229 227 224 224 227 231 234 237 240 241 241 239 237 237 240 245 249 252 255 259 261 261 257 253 249 248 249 250 251 252 252 251 250 250 251 253 253 253 253 255 259 263 270 278 285 292 297 301 304 307 309 311 312 313 313 312
246 247 247 248 248 248 248 247 246 245 244 244 243 242 241 240 239 237 236 236 235 233 231 230 228 227 226 226 226 228 229 230 231 231 232 234 235 236 238 240 242 244 243 242 242 244 247 250 253 257 261 261 260 256 252 249 249 250 249 249 248 247 247 247 249 250 250 250 250 251 255 260 266 274 281 287 293 297 300 304 308 310 312 313 312 311 310
252 249 247 246 246 247 247 247 247 246 245 245 245 244 244 244 243 242 240 239 239 239 238 236 235 233 232 230 229 230 231 231 231 232 233 235 236 237 238 239 242 245 246 246 245 248 252 255 256 258 259 259 258 255 252 250 250 248 247 246 245 244 244 246 247 247 247 247 248 251 255 262 269 277 283 288 292 297 301 305 309 313 314 314 312 311 311
264 262 258 254 251 249 248 247 247 246 245 244 244 244 243 243 244 244 243 242 240 240 240 240 239 238 238 237 236 235 235 234 234 234 235 236 237 238 240 242 243 244 247 250 250 251 253 255 256 256 257 257 256 253 250 248 247 245 244 243 242 242 243 245 245 244 244 246 248 251 257 264 271 277 282 287 292 297 302 308 312 315 316 314 312 312 313
267 269 268 266 263 259 256 253 251 249 247 245 243 242 242 242 241 242 242 243 242 241 240 240 240 239 239 239 239 239 239 239 239 240 240 241 240 240 242 245 246 247 250 252 251 250 251 252 253 254 254 254 252 250 248 246 244 242 240 239 238 240 242 243 242 241 243 245 248 252 258 265 271 276 281 286 292 297 303 309 313 314 314 312 311 312 313
269 271 272 272 270 268 266 263 260 257 254 250 247 244 243 242 240 239 239 240 240 240 240 240 240 240 239 239 240 240 241 241 241 242 244 246 246 245 244 244 246 247 249 249 249 249 250 251 251 251 250 250 249 247 245 243 242 240 238 237 238 240 241 241 239 240 242 245 249 253 259 264 270 274 279 284 290 296 301 306 308 308 307 307 307 309 310
273 274 274 274 273 273 272 269 266 264 261 258 255 251 248 245 243 242 240 239 238 238 238 239 239 239 239 239 240 241 242 242 242 242 243 245 248 248 246 245 245 246 248 248 249 249 250 250 249 247 245 244 243 243 241 241 240 239 237 238 239 240 240 238 237 239 241 245 249 254 258 263 267 271 276 281 286 291 295 297 298 299 300 301 304 305 307
278 278 278 277 276 273 271 269 267 265 263 262 261 259 256 253 251 248 245 243 241 239 238 238 238 238 238 238 239 241 243 244 244 243 242 243 246 248 249 248 248 248 249 249 248 248 248 247 245 242 240 239 239 239 239 238 238 237 238 239 239 238 236 235 235 237 241 244 248 253 258 261 264 268 272 277 281 285 287 289 290 292 295 298 301 303 304
288 292 292 290 283 275 269 266 264 263 263 263 263 263 261 259 256 253 250 248 246 243 241 239 239 238 238 238 239 240 242 243 244 244 243 243 244 246 248 248 248 247 246 245 244 243 244 244 242 239 238 237 236 236 235 235 235 237 238 239 237 235 232 232 234 237 240 245 250 254 258 260 262 265 269 273 276 279 282 284 287 290 293 296 298 300 303
292 299 303 300 291 280 270 264 261 261 263 265 265 264 262 260 257 255 252 250 248 246 243 240 238 237 237 236 236 237 237 238 240 241 241 240 240 241 242 243 243 242 241 240 240 240 240 240 240 239 238 237 236 234 233 232 234 237 238 237 235 232 231 232 235 238 241 246 251 255 257 259 261 264 267 270 273 276 279 282 285 288 291 293 295 297 300
287 297 304 305 300 286 272 262 259 260 263 264 264 264 262 260 258 255 252 250 249 247 244 241 238 234 232 232 232 233 235 236 237 239 240 240 239 239 240 242 242 241 240 240 239 238 238 238 238 238 238 237 235 233 230 230 233 236 236 235 232 230 231 233 236 239 243 247 250 253 256 258 262 265 267 270 273 276 278 280 283 286 289 290 292 295 297
278 289 297 302 302 292 277 268 266 267 269 269 268 267 266 264 262 258 255 252 249 246 243 241 239 236 233 232 231 230 231 233 235 238 241 242 241 239 239 241 242 242 241 240 239 238 238 238 237 237 237 237 235 231 230 230 233 235 234 232 230 230 231 234 237 240 244 247 250 253 256 259 262 265 268 271 273 275 277 280 283 286 287 289 291 293 295
270 280 292 298 296 286 277 272 271 273 275 277 277 274 268 264 263 263 260 257 253 249 244 240 237 234 233 232 231 229 228 229 232 234 236 237 237 237 236 237 238 239 240 240 240 240 240 239 238 237 236 235 233 231 231 233 234 234 232 230 230 230 232 235 239 243 246 250 253 255 258 261 263 265 267 270 272 275 277 280 282 284 286 288 290 292 294
265 273 286 293 290 280 275 273 273 275 279 286 291 286 273 262 258 261 264 262 258 253 249 243 237 233 230 229 229 229 229 229 231 232 233 233 234 234 234 234 234 235 237 239 240 240 240 240 238 235 232 230 230 232 234 235 235 233 230 229 230 232 235 238 242 245 249 252 255 258 260 262 264 266 268 270 272 274 277 279 282 284 286 288 290 292 294
266 267 277 287 287 279 272 270 272 280 289 300 309 309 294 273 260 261 271 271 264 255 248 242 235 230 228 227 226 226 226 226 228 230 230 231 232 232 232 233 234 234 235 236 236 236 235 234 232 229 227 227 229 233 235 235 233 230 229 229 231 234 237 240 243 247 250 253 256 259 261 263 265 267 269 271 273 275 278 280 283 284 286 288 290 291 293
277 269 272 281 286 282 272 263 262 276 296 303 308 316 316 300 274 262 268 274 264 246 232 223 218 216 217 220 222 223 224 225 226 227 228 229 230 231 231 233 234 234 234 233 232 229 227 226 225 225 226 229 231 233 234 233 231 230 231 232 234 236 239 242 245 249 252 255 258 261 263 265 267 269 271 273 275 277 279 281 283 284 286 288 289 291 292
299 282 278 283 287 287 280 268 261 269 289 296 299 313 328 325 304 281 276 277 266 240 219 209 206 206 208 211 213 216 217 219 221 223 225 225 226 226 227 228 229 229 229 227 225 222 221 221 223 226 229 232 233 233 233 232 232 233 234 236 238 240 242 245 249 253 256 259 262 264 266 268 270 272 273 275 276 278 279 281 282 284 286 287 289 291 292
Height
5653 5656 5660 5664 5667 5670 5674 5678 5681 5685 5687 5689 5692 5695 5699 5702 5704 5708 5712 5715 5718 5721 5724 5727 5731 5734 5737 5740 5742 5745 5747 5749 5752 5754 5756 5758 5759 5761 5762 5764 5767 5769 5770 5771 5772 5772 5773 5774 5775 5775 5776 5777 5778 5778 5778 5779 5779 5779 5779 5780 5780 5780 5780 5781 5780 5780 5780 5780 5779 5779 5778 5778 5777 5776 5775 5773 5772 5771 5770 5768 5767 5766 5764 5762 5761 5759 5757
5650 5653 5657 5661 5664 5667 5671 5675 5678 5682 5685 5688 5691 5694 5697 5700 5703 5706 5709 5712 5715 5719 5721 5724 5728 5730 5733 5736 5739 5742 5744 5747 5749 5751 5753 5755 5756 5758 5759 5761 5763 5764 5766 5767 5768 5769 5769 5771 5772 5772 5772 5773 5774 5774 5775 5775 5775 5776 5776 5777 5777 5777 5777 5777 5777 5777 5777 5776 5776 5776 5775 5775 5774 5773 5771 5770 5769 5768 5767 5765 5764 5763 5761 5759 5757 5756 5754
5647 5651 5654 5658 5661 5665 5668 5672 5676 5679 5682 5685 5688 5691 5694 5697 5700 5704 5707 5709 5712 5716 5719 5722 5724 5727 5730 5733 5736 5739 5742 5744 5747 5749 5750 5752 5753 5754 5755 5756 5758 5760 5762 5763 5764 5764 5766 5767 5768 5768 5768 5769 5770 5770 5771 5771 5771 5772 5773 5773 5773 5773 5774 5774 5774 5774 5773 5773 5773 5773 5772 5771 5770 5769 5768 5767 5766 5765 5763 5762 5761 5759 5758 5756 5754 5752 5750
5645 5649 5652 5656 5660 5663 5666 5670 5673 5676 5679 5682 5685 5688 5692 5695 5698 5701 5704 5707 5710 5713 5716 5719 5722 5725 5728 5731 5733 5736 5739 5741 5744 5746 5748 5749 5750 5751 5752 5753 5755 5757 5758 5759 5760 5761 5762 5763 5764 5764 5764 5765 5765 5766 5766 5767 5767 5768 5769 5769 5770 5770 5770 5770 5770 5770 5770 5770 5770 5769 5769 5768 5767 5766 5765 5764 5763 5761 5760 5759 5758 5756 5754 5753 5751 5749 5747
5644 5648 5651 5654 5658 5662 5664 5667 5670 5674 5677 5680 5683 5686 5689 5693 5696 5698 5701 5705 5708 5711 5713 5716 5719 5722 5725 5728 5731 5733 5736 5738 5740 5742 5744 5745 5746 5747 5749 5751 5752 5754 5755 5756 5757 5758 5759 5759 5760 5760 5760 5761 5761 5761 5761 5761 5762 5763 5765 5765 5766 5766 5766 5766 5767 5767 5767 5766 5766 5766 5766 5765 5764 5763 5762 5760 5759 5758 5757 5756 5754 5753 5751 5749 5747 5746 5744
5644 5647 5650 5654 5657 5659 5662 5665 5669 5672 5675 5678 5681 5684 5687 5690 5693 5696 5699 5702 5705 5708 5711 5714 5716 5719 5722 5725 5727 5730 5732 5734 5736 5738 5740 5741 5742 5744 5747 5749 5750 5751 5752 5753 5754 5755 5755 5755 5756 5756 5756 5757 5757 5757 5757 5757 5757 5759 5760 5761 5761 5762 5762 5763 5763 5763 5763 5763 5763 5763 5763 5762 5761 5760 5759 5757 5756 5755 5754 5752 5751 5749 5747 5746 5744 5743 5741
5643 5646 5649 5652 5655 5658 5661 5664 5667 5670 5673 5676 5679 5682 5685 5688 5691 5694 5696 5699 5702 5705 5708 5710 5713 5715 5718 5721 5723 5726 5728 5730 5732 5734 5736 5737 5739 5742 5745 5746 5747 5748 5749 5750 5751 5751 5751 5751 5752 5752 5752 5752 5753 5753 5753 5754 5754 5754 5755 5756 5757 5758 5758 5759 5759 5760 5760 5760 5760 5760 5759 5759 5758 5757 5756 5755 5753 5752 5751 5749 5748 5746 5745 5743 5742 5740 5739
5641 5644 5647 5650 5653 5656 5659 5662 5665 5668 5671 5674 5677 5680 5682 5685 5688 5691 5693 5696 5699 5701 5704 5707 5709 5712 5715 5717 5719 5722 5724 5726 5728 5730 5732 5734 5736 5739 5740 5742 5743 5745 5746 5747 5748 5748 5748 5748 5748 5748 5748 5749 5749 5749 5749 5750 5750 5751 5751 5752 5753 5754 5755 5755 5756 5756 5757 5757 5757 5757 5756 5755 5755 5754 5753 5752 5750 5749 5748 5746 5745 5744 5742 5741 5739 5737 5736
5639 5642 5646 5649 5651 5655 5658 5661 5664 5666 5669 5672 5675 5678 5680 5683 5686 5688 5690 5693 5696 5698 5701 5704 5706 5709 5712 5714 5716 5719 5721 5723 5725 5727 5729 5731 5733 5735 5736 5737 5739 5741 5742 5743 5744 5744 5744 5744 5744 5745 5745 5745 5745 5745 5745 5746 5746 5747 5747 5748 5749 5750 5751 5752 5752 5753 5753 5754 5754 5754 5753 5752 5752 5751 5750 5749 5748 5746 5745 5744 5743 5741 5739 5738 5736 5734 5733
5639 5642 5644 5647 5650 5653 5656 5659 5661 5664 5667 5670 5672 5675 5678 5680 5683 5685 5687 5690 5693 5696 5699 5701 5704 5706 5708 5711 5714 5716 5718 5720 5723 5725 5726 5728 5730 5731 5733 5734 5736 5737 5738 5739 5740 5741 5741 5741 5741 5741 5741 5741 5741 5742 5742 5742 5742 5743 5744 5745 5745 5746 5748 5749 5749 5750 5750 5751 5751 5750 5750 5749 5749 5748 5747 5746 5745 5744 5743 5741 5740 5738 5737 5735 5733 5731 5729
5637 5640 5643 5645 5648 5651 5654 5656 5659 5662 5665 5667 5670 5673 5675 5677 5680 5683 5685 5688 5691 5694 5696 5699 5701 5703 5706 5709 5712 5714 5716 5718 5720 5722 5723 5725 5726 5728 5729 5731 5732 5733 5734 5735 5736 5736 5737 5737 5737 5737 5737 5737 5738 5738 5738 5738 5739 5739 5740 5741 5742 5743 5744 5745 5746 5747 5747 5747 5747 5747 5747 5746 5746 5745 5744 5743 5742 5741 5740 5738 5737 5735 5734 5732 5730 5728 5726
5635 5638 5641 5643 5647 5649 5652 5654 5657 5660 5662 5664 5667 5670 5673 5675 5678 5681 5683 5686 5688 5691 5693 5696 5698 5701 5703 5706 5708 5710 5712 5714 5716 5718 5720 5721 5723 5725 5726 5727 5728 5729 5730 5731 5731 5732 5732 5733 5733 5733 5733 5733 5734 5734 5735 5735 5735 5736 5736 5738 5739 5740 5741 5742 5743 5743 5744 5744 5744 5744 5744 5743 5743 5742 5741 5740 5739 5738 5737 5735 5734 5732 5730 5729 5727 5725 5723
5633 5636 5638 5641 5644 5648 5650 5652 5655 5657 5660 5662 5665 5669 5671 5674 5676 5678 5680 5683 5685 5687 5690 5693 5695 5698 5700 5702 5704 5706 5708 5710 5712 5714 5716 5717 5719 5720 5722 5723 5724 5725 5726 5726 5726 5727 5728 5728 5728 5729 5729 5729 5729 5730 5730 5731 5731 5732 5733 5734 5736 5737 5738 5739 5740 5740 5740 5740 5740 5741 5740 5740 5739 5739 5738 5737 5736 5735 5734 5732 5731 5729 5727 5726 5724 5722 5720
5631 5634 5637 5639 5642 5646 5648 5650 5653 5655 5657 5660 5664 5667 5669 5671 5673 5675 5677 5680 5682 5684 5687 5689 5691 5694 5696 5698 5700 5702 5704 5706 5708 5710 5712 5713 5715 5717 5718 5719 5720 5721 5721 5722 5722 5723 5724 5724 5724 5725 5725 5725 5725 5725 5726 5727 5728 5729 5730 5732 5733 5734 5735 5736 5736 5737 5737 5737 5737 5737 5737 5737 5736 5735 5734 5734 5733 5732 5730 5729 5728 5726 5725 5723 5721 5719 5718
5629 5632 5634 5637 5641 5644 5647 5649 5651 5653 5656 5659 5662 5664 5666 5667 5670 5672 5674 5676 5679 5681 5683 5685 5687 5690 5692 5694 5696 5698 5700 5702 5704 5706 5708 5710 5711 5713 5714 5715 5716 5717 5717 5718 5719 5720 5720 5720 5720 5721 5721 5722 5721 5721 5722 5724 5725 5726 5728 5729 5730 5731 5732 5733 5733 5733 5734 5734 5734 5734 5734 5733 5732 5732 5731 5730 5729 5729 5727 5726 5725 5723 5722 5720 5718 5716 5715
5628 5630 5633 5637 5641 5644 5645 5647 5650 5652 5654 5656 5659 5661 5663 5664 5666 5669 5671 5673 5675 5677 5679 5681 5683 5686 5688 5690 5692 5694 5696 5698 5700 5702 5704 5706 5707 5709 5710 5711 5712 5712 5713 5714 5715 5716 5716 5716 5717 5717 5717 5718 5718 5719 5720 5722 5723 5724 5725 5726 5727 5728 5729 5729 5730 5730 5731 5731 5731 5731 5730 5730 5729 5729 5728 5727 5726 5725 5724 5723 5722 5721 5719 5717 5715 5714 5712
5626 5629 5632 5636 5639 5641 5643 5645 5648 5649 5651 5653 5655 5657 5659 5661 5663 5665 5667 5669 5672 5674 5676 5678 5680 5682 5684 5686 5688 5690 5692 5694 5697 5699 5701 5702 5704 5705 5706 5707 5708 5708 5709 5710 5711 5712 5713 5713 5713 5713 5714 5714 5715 5716 5718 5719 5720 5721 5722 5723 5724 5725 5726 5726 5727 5727 5728 5728 5728 5727 5727 5727 5726 5726 5725 5724 5723 5722 5721 5720 5719 5718 5716 5714 5713 5711 5710
5625 5627 5629 5632 5636 5638 5640 5642 5644 5646 5648 5650 5652 5654 5656 5658 5660 5662 5664 5666 5668 5670 5672 5674 5676 5678 5680 5682 5684 5686 5688 5690 5693 5695 5697 5699 5700 5701 5703 5704 5704 5705 5706 5707 5708 5709 5709 5709 5710 5710 5710 5710 5711 5712 5714 5715 5717 5718 5719 5720 5721 5722 5723 5724 5724 5724 5724 5724 5724 5724 5724 5724 5723 5722 5721 5721 5720 5719 5718 5718 5717 5715 5714 5712 5710 5709 5707
5623 5625 5627 5630 5633 5635 5637 5639 5641 5643 5645 5646 5648 5650 5652 5654 5656 5658 5660 5662 5665 5667 5669 5671 5673 5675 5676 5678 5679 5682 5684 5686 5689 5691 5693 5695 5696 5698 5699 5699 5700 5701 5702 5704 5705 5705 5705 5706 5707 5708 5708 5708 5709 5710 5711 5713 5714 5716 5717 5718 5719 5720 5720 5721 5721 5721 5721 5721 5721 5721 5721 5720 5720 5719 5718 5717 5717 5716 5715 5715 5714 5713 5711 5709 5708 5706 5705
5621 5623 5625 5627 5629 5632 5634 5635 5637 5639 5641 5643 5645 5647 5649 5651 5652 5654 5656 5658 5660 5663 5665 5667 5669 5671 5673 5674 5676 5678 5680 5683 5685 5687 5689 5690 5692 5693 5694 5695 5696 5697 5699 5700 5701 5701 5702 5703 5705 5706 5707 5707 5707 5709 5710 5711 5712 5714 5715 5715 5716 5717 5717 5717 5718 5718 5718 5718 5718 5718 5718 5717 5716 5716 5715 5714 5714 5713 5713 5712 5711 5710 5709 5707 5705 5704 5702
5619 5620 5622 5624 5626 5628 5630 5631 5633 5635 5637 5639 5641 5643 5645 5647 5648 5649 5651 5653 5655 5658 5661 5663 5665 5667 5669 5671 5673 5675 5677 5679 5681 5682 5684 5686 5687 5689 5690 5691 5692 5694 5696 5697 5698 5698 5699 5701 5702 5704 5704 5704 5705 5706 5707 5709 5710 5711 5711 5712 5713 5713 5714 5714 5715 5715 5715 5715 5715 5715 5714 5714 5713 5713 5712 5711 5711 5711 5710 5710 5709 5708 5706 5705 5703 5702 5700
5617 5618 5620 5621 5623 5625 5627 5629 5630 5632 5634 5636 5638 5640 5642 5643 5644 5645 5647 5649 5651 5654 5656 5659 5662 5664 5666 5668 5670 5672 5673 5675 5677 5679 5680 5682 5683 5685 5686 5688 5689 5691 5692 5694 5695 5695 5696 5698 5700 5701 5701 5702 5703 5704 5705 5706 5707 5707 5708 5709 5710 5710 5711 5711 5712 5712 5712 5712 5712 5711 5711 5710 5710 5709 5709 5708 5708 5708 5708 5707 5706 5705 5704 5702 5701 5700 5698
5615 5617 5618 5620 5622 5624 5625 5627 5628 5630 5632 5634 5635 5637 5639 5640 5642 5643 5644 5646 5648 5650 5653 5655 5658 5661 5663 5665 5667 5668 5670 5672 5674 5675 5677 5678 5680 5681 5683 5684 5686 5688 5689 5690 5691 5692 5693 5695 5696 5697 5698 5699 5700 5701 5702 5703 5704 5704 5705 5706 5707 5707 5708 5708 5708 5708 5709 5708 5708 5708 5708 5707 5707 5706 5706 5706 5706 5705 5705 5704 5703 5702 5701 5700 5699 5697 5696
5614 5615 5616 5618 5619 5621 5622 5624 5626 5628 5630 5631 5633 5635 5636 5638 5639 5641 5642 5644 5645 5647 5649 5652 5655 5657 5659 5661 5663 5665 5666 5668 5670 5672 5673 5675 5677 5678 5680 5681 5682 5684 5686 5687 5688 5689 5691 5692 5693 5695 5696 5697 5698 5699 5700 5700 5701 5702 5702 5703 5704 5704 5704 5705 5705 5705 5705 5705 5705 5705 5705 5704 5704 5704 5703 5703 5703 5703 5702 5701 5700 5700 5699 5698 5696 5695 5693
5612 5613 5614 5615 5617 5618 5620 5622 5623 5625 5627 5629 5630 5632 5634 5635 5637 5638 5640 5641 5643 5644 5646 5649 5651 5653 5655 5657 5660 5661 5663 5664 5666 5668 5670 5672 5673 5675 5676 5678 5679 5681 5682 5684 5685 5686 5688 5690 5691 5692 5693 5694 5695 5696 5697 5697 5698 5699 5699 5700 5700 5701 5701 5701 5702 5702 5702 5702 5702 5702 5702 5701 5701 5701 5701 5700 5700 5700 5699 5699 5698 5697 5696 5695 5693 5692 5690
5610 5611 5612 5613 5614 5615 5617 5619 5621 5622 5624 5626 5628 5629 5631 5633 5634 5635 5637 5638 5640 5641 5643 5645 5647 5650 5652 5655 5657 5658 5659 5660 5662 5664 5666 5668 5670 5671 5673 5674 5676 5677 5679 5681 5682 5684 5685 5687 5688 5690 5691 5692 5693 5693 5694 5694 5695 5696 5696 5697 5697 5698 5698 5699 5699 5699 5699 5699 5699 5699 5699 5698 5698 5698 5698 5698 5697 5697 5696 5696 5695 5694 5693 5692 5691 5689 5688
5607 5608 5609 5609 5611 5612 5614 5616 5618 5620 5621 5623 5625 5626 5628 5630 5631 5632 5633 5635 5636 5638 5640 5642 5645 5647 5649 5652 5654 5654 5655 5657 5659 5661 5663 5664 5666 5668 5669 5671 5672 5674 5676 5677 5679 5681 5683 5684 5686 5687 5688 5689 5690 5690 5691 5692 5692 5693 5694 5694 5695 5695 5695 5696 5696 5696 5696 5696 5696 5696 5696 5696 5695 5695 5695 5695 5695 5694 5694 5693 5692 5691 5690 5689 5688 5686 5685
5605 5605 5606 5607 5609 5610 5612 5614 5616 5617 5618 5620 5622 5624 5625 5627 5628 5629 5630 5631 5633 5634 5637 5639 5642 5644 5646 5648 5650 5651 5652 5654 5656 5658 5659 5661 5663 5664 5666 5668 5669 5671 5673 5674 5676 5678 5680 5681 5683 5684 5685 5686 5687 5688 5688 5689 5689 5690 5691 5692 5692 5692 5693 5693 5693 5693 5693 5693 5693 5693 5693 5693 5693 5693 5693 5692 5692 5692 5691 5690 5690 5689 5688 5686 5685 5684 5683
5603 5604 5604 5606 5607 5609 5610 5612 5613 5614 5616 5618 5619 5621 5622 5624 5625 5626 5627 5628 5629 5630 5632 5635 5637 5639 5642 5644 5646 5648 5649 5651 5653 5655 5657 5658 5660 5661 5663 5664 5666 5668 5670 5672 5674 5675 5677 5678 5680 5681 5682 5683 5684 5685 5685 5686 5687 5688 5688 5689 5689 5689 5690 5690 5690 5690 5690 5690 5690 5690 5690 5690 5690 5690 5690 5690 5690 5689 5689 5688 5687 5686 5685 5684 5682 5681 5680
5601 5602 5603 5604 5605 5606 5607 5609 5610 5612 5614 5615 5616 5618 5619 5621 5622 5623 5624 5625 5625 5626 5628 5631 5633 5636 5639 5641 5643 5644 5647 5649 5651 5652 5654 5655 5657 5658 5660 5661 5664 5666 5668 5669 5671 5672 5674 5675 5677 5678 5679 5680 5681 5682 5682 5683 5684 5685 5685 5686 5686 5686 5687 5686 5687 5687 5687 5687 5687 5687 5687 5687 5687 5688 5688 5687 5687 5687 5686 5686 5685 5683 5682 5681 5680 5678 5677
5600 5601 5602 5603 5604 5605 5605 5606 5608 5609 5611 5612 5614 5615 5617 5618 5619 5621 5622 5623 5623 5624 5626 5628 5630 5633 5636 5638 5640 5642 5644 5647 5648 5649 5650 5652 5653 5655 5657 5659 5662 5664 5665 5666 5668 5669 5671 5672 5673 5674 5676 5677 5678 5679 5680 5680 5681 5682 5682 5682 5683 5683 5683 5683 5683 5683 5683 5683 5684 5684 5684 5684 5685 5685 5685 5685 5685 5684 5684 5683 5682 5681 5679 5678 5677 5676 5674
5599 5600 5601 5602 5603 5604 5604 5605 5606 5607 5609 5610 5612 5613 5615 5616 5617 5619 5620 5621 5622 5623 5624 5626 5628 5631 5633 5635 5637 5639 5642 5644 5645 5646 5648 5649 5650 5652 5654 5656 5658 5660 5662 5663 5664 5666 5668 5669 5670 5671 5673 5674 5675 5675 5676 5677 5678 5678 5679 5679 5679 5679 5680 5680 5680 5680 5680 5680 5681 5681 5681 5682 5682 5682 5682 5682 5682 5682 5681 5680 5679 5678 5677 5675 5674 5673 5672
5598 5599 5600 5601 5602 5603 5604 5604 5605 5606 5608 5609 5610 5611 5613 5614 5615 5617 5618 5619 5621 5622 5623 5624 5626 5629 5631 5633 5635 5637 5639 5641 5642 5644 5645 5647 5648 5650 5651 5653 5655 5657 5658 5660 5661 5663 5665 5666 5667 5668 5669 5670 5671 5672 5673 5674 5674 5674 5675 5675 5676 5676 5676 5676 5677 5677 5677 5678 5678 5678 5679 5679 5679 5679 5679 5680 5679 5679 5678 5677 5676 5675 5674 5673 5672 5670 5669
5596 5597 5598 5599 5600 5601 5602 5603 5604 5605 5606 5608 5609 5610 5611 5612 5614 5615 5617 5618 5619 5620 5622 5623 5625 5627 5629 5631 5633 5635 5636 5637 5638 5640 5642 5644 5646 5647 5648 5650 5651 5653 5656 5657 5659 5660 5661 5663 5664 5665 5666 5667 5668 5669 5670 5670 5671 5671 5671 5671 5672 5672 5673 5673 5674 5674 5674 5675 5675 5676 5676 5676 5677 5677 5677 5677 5677 5676 5675 5674 5673 5672 5671 5670 5669 5668 5667
5594 5595 5596 5597 5598 5599 5600 5601 5602 5603 5604 5605 5607 5608 5609 5611 5612 5613 5615 5616 5617 5619 5620 5622 5623 5625 5627 5629 5631 5632 5633 5634 5635 5636 5639 5641 5642 5644 5645 5646 5648 5650 5653 5655 5656 5657 5658 5659 5660 5661 5662 5663 5664 5665 5666 5666 5667 5667 5667 5668 5668 5669 5669 5670 5671 5671 5671 5672 5672 5673 5673 5674 5674 5674 5674 5674 5674 5673 5672 5671 5670 5669 5668 5667 5666 5665 5665
5591 5592 5593 5594 5595 5596 5597 5598 5599 5600 5601 5603 5604 5605 5607 5608 5609 5611 5612 5614 5615 5616 5618 5619 5621 5623 5625 5626 5628 5629 5630 5631 5632 5634 5636 5638 5639 5640 5642 5643 5645 5647 5649 5651 5653 5654 5655 5655 5656 5657 5658 5659 5661 5661 5662 5662 5663 5663 5664 5664 5665 5666 5666 5667 5667 5668 5668 5669 5669 5670 5670 5671 5671 5672 5672 5672 5671 5670 5669 5669 5668 5667 5666 5665 5664 5663 5662
5587 5588 5589 5590 5591 5592 5593 5594 5596 5597 5598 5599 5601 5602 5604 5605 5606 5608 5609 5611 5612 5614 5615 5617 5618 5620 5621 5623 5624 5625 5627 5628 5630 5631 5633 5634 5635 5637 5639 5640 5642 5644 5646 5647 5649 5650 5650 5652 5653 5654 5655 5656 5657 5658 5658 5658 5659 5660 5660 5661 5661 5662 5663 5663 5664 5665 5665 5666 5666 5667 5667 5668 5668 5669 5669 5669 5668 5667 5667 5666 5665 5664 5663 5662 5661 5661 5660
5584 5584 5585 5586 5587 5588 5589 5590 5591 5593 5594 5595 5597 5598 5600 5601 5602 5604 5606 5607 5609 5610 5612 5613 5615 5616 5618 5619 5621 5622 5623 5625 5627 5628 5629 5631 5632 5634 5636 5638 5639 5640 5641 5642 5645 5646 5647 5648 5649 5650 5651 5652 5653 5654 5654 5655 5655 5656 5657 5657 5658 5659 5660 5660 5661 5662 5662 5663 5664 5664 5665 5665 5666 5666 5666 5665 5665 5664 5664 5663 5662 5661 5660 5660 5659 5658 5658
5581 5581 5582 5582 5583 5584 5585 5586 5587 5588 5589 5590 5592 5593 5595 5596 5598 5599 5601 5603 5605 5606 5608 5609 5611 5613 5615 5616 5617 5618 5619 5621 5623 5625 5626 5627 5629 5631 5632 5634 5635 5636 5636 5638 5641 5643 5643 5644 5645 5646 5647 5648 5649 5650 5651 5651 5652 5653 5653 5654 5655 5656 5657 5657 5658 5659 5659 5660 5661 5662 5662 5663 5663 5663 5663 5662 5662 5661 5661 5660 5659 5658 5658 5657 5657 5656 5655
5579 5579 5580 5580 5581 5581 5582 5582 5583 5584 5584 5586 5587 5588 5589 5591 5593 5595 5596 5598 5600 5602 5603 5605 5607 5609 5610 5612 5613 5615 5616 5617 5619 5620 5621 5623 5625 5627 5629 5630 5631 5632 5633 5635 5637 5638 5639 5640 5641 5643 5644 5645 5646 5646 5647 5648 5648 5649 5650 5651 5652 5653 5653 5654 5655 5656 5656 5657 5658 5659 5660 5660 5660 5660 5660 5659 5659 5658 5658 5657 5656 5656 5655 5655 5654 5654 5653
5578 5578 5578 5579 5579 5579 5579 5580 5580 5581 5581 5582 5582 5583 5584 5586 5587 5589 5591 5593 5595 5597 5598 5600 5602 5604 5606 5607 5608 5610 5611 5613 5615 5616 5617 5618 5620 5623 5625 5627 5627 5628 5629 5631 5632 5634 5634 5636 5638 5639 5640 5640 5641 5642 5643 5644 5645 5646 5647 5647 5648 5649 5650 5651 5652 5653 5654 5655 5656 5656 5657 5657 5657 5657 5657 5656 5656 5655 5655 5654 5654 5654 5653 5653 5652 5651 5651
5577 5577 5577 5577 5577 5577 5577 5577 5578 5578 5578 5579 5579 5580 5581 5581 5583 5584 5586 5587 5589 5591 5593 5595 5597 5599 5601 5603 5604 5605 5607 5608 5610 5612 5614 5615 5616 5618 5620 5622 5623 5624 5625 5627 5628 5630 5630 5632 5633 5635 5635 5636 5637 5638 5639 5640 5641 5642 5643 5644 5645 5646 5647 5648 5649 5650 5651 5652 5653 5654 5654 5654 5654 5654 5654 5653 5653 5653 5652 5652 5651 5651 5651 5650 5650 5649 5648
5576 5576 5576 5576 5575 5575 5575 5575 5575 5576 5576 5576 5577 5577 5578 5578 5579 5580 5581 5583 5584 5586 5588 5590 5592 5593 5596 5598 5599 5601 5602 5604 5605 5608 5610 5611 5612 5613 5615 5617 5619 5621 5622 5623 5625 5625 5626 5627 5629 5630 5631 5632 5633 5634 5635 5637 5638 5639 5640 5641 5642 5643 5644 5645 5646 5648 5649 5649 5650 5651 5651 5651 5651 5651 5651 5650 5650 5650 5650 5649 5649 5648 5648 5647 5647 5646 5645
5574 5574 5574 5574 5573 5573 5573 5573 5573 5573 5574 5574 5574 5574 5575 5575 5576 5577 5578 5579 5580 5581 5583 5585 5587 5589 5591 5593 5595 5596 5598 5599 5601 5603 5605 5607 5609 5610 5612 5613 5615 5617 5618 5619 5620 5621 5622 5624 5625 5626 5627 5628 5630 5631 5632 5633 5634 5635 5637 5638 5639 5640 5641 5642 5644 5645 5646 5646 5647 5647 5647 5648 5648 5648 5648 5647 5647 5647 5647 5646 5646 5645 5645 5644 5644 5643 5642
5573 5573 5572 5572 5571 5570 5570 5571 5571 5571 5571 5571 5571 5571 5572 5572 5573 5574 5574 5575 5576 5577 5579 5580 5582 5584 5586 5587 5589 5590 5592 5594 5595 5597 5599 5602 5604 5606 5607 5608 5610 5612 5613 5615 5616 5617 5619 5620 5621 5623 5624 5625 5626 5627 5628 5630 5631 5632 5633 5634 5636 5637 5638 5639 5641 5642 5642 5643 5643 5644 5644 5644 5645 5645 5645 5644 5644 5644 5644 5643 5643 5642 5642 5641 5640 5640 5639
5571 5571 5571 5570 5569 5568 5569 5569 5569 5570 5570 5570 5569 5569 5569 5570 5570 5571 5571 5572 5573 5573 5574 5576 5577 5579 5580 5581 5583 5585 5587 5589 5591 5593 5595 5597 5599 5601 5603 5604 5606 5608 5610 5611 5613 5614 5615 5616 5618 5619 5620 5621 5623 5624 5625 5626 5627 5629 5630 5631 5632 5634 5635 5636 5637 5638 5639 5640 5640 5640 5641 5641 5641 5641 5641 5641 5641 5640 5640 5640 5639 5639 5638 5637 5637 5636 5635
5570 5570 5569 5569 5568 5568 5568 5568 5568 5568 5568 5568 5568 5568 5568 5568 5568 5568 5568 5569 5569 5570 5570 5571 5573 5574 5576 5577 5579 5582 5584 5586 5588 5589 5591 5593 5596 5598 5600 5602 5604 5605 5607 5608 5609 5610 5611 5613 5614 5615 5616 5618 5619 5621 5622 5623 5624 5625 5627 5628 5629 5631 5632 5633 5634 5635 5636 5636 5637 5637 5637 5637 5637 5637 5637 5637 5637 5636 5636 5636 5635 5635 5634 5633 5633 5632 5631
5568 5568 5568 5568 5567 5567 5567 5567 5567 5567 5567 5567 5566 5566 5566 5566 5565 5566 5566 5566 5566 5566 5566 5567 5569 5570 5572 5573 5575 5578 5580 5582 5584 5585 5587 5590 5592 5594 5596 5598 5600 5601 5603 5604 5606 5607 5608 5610 5611 5612 5613 5615 5616 5617 5619 5620 5621 5622 5623 5625 5626 5627 5629 5630 5631 5632 5632 5633 5633 5633 5634 5634 5634 5633 5633 5633 5633 5632 5632 5632 5631 5630 5630 5629 5628 5627 5626
5567 5567 5567 5567 5566 5566 5566 5566 5566 5566 5566 5565 5565 5564 5564 5563 5563 5564 5563 5563 5563 5563 5563 5564 5565 5566 5568 5570 5572 5574 5576 5578 5580 5582 5584 5586 5588 5590 5592 5594 5596 5597 5599 5601 5602 5604 5605 5606 5608 5609 5610 5612 5613 5614 5615 5617 5618 5619 5620 5622 5623 5624 5625 5627 5627 5628 5629 5629 5629 5629 5629 5629 5629 5629 5629 5629 5628 5628 5628 5627 5626 5626 5625 5624 5623 5622 5621
5566 5566 5566 5565 5565 5565 5565 5565 5565 5565 5564 5564 5563 5563 5562 5562 5562 5562 5562 5561 5561 5560 5561 5561 5562 5563 5565 5567 5569 5571 5573 5575 5577 5579 5581 5583 5585 5587 5589 5590 5592 5594 5595 5597 5598 5600 5602 5603 5604 5606 5607 5608 5610 5611 5612 5613 5615 5616 5617 5618 5620 5621 5622 5623 5624 5624 5624 5625 5625 5625 5625 5625 5625 5625 5624 5624 5624 5623 5623 5622 5621 5621 5620 5619 5618 5617 5616
5565 5565 5565 5564 5564 5564 5564 5564 5564 5564 5563 5563 5562 5562 5561 5561 5561 5561 5561 5560 5560 5560 5560 5560 5561 5562 5563 5565 5566 5568 5570 5572 5574 5576 5578 5580 5582 5584 5586 5587 5589 5591 5592 5594 5595 5597 5598 5600 5601 5603 5604 5605 5607 5608 5609 5610 5611 5612 5614 5615 5616 5617 5618 5619 5619 5620 5620 5620 5620 5621 5621 5620 5620 5620 5620 5619 5619 5618 5618 5617 5616 5615 5614 5613 5612 5611 5610
5564 5564 5564 5563 5563 5563 5563 5563 5563 5563 5562 5562 5562 5561 5561 5560 5560 5560 5560 5560 5560 5560 5560 5560 5560 5561 5562 5564 5565 5567 5568 5570 5572 5574 5576 5578 5579 5581 5583 5584 5586 5588 5589 5591 5592 5594 5595 5597 5598 5600 5601 5602 5604 5605 5606 5607 5608 5610 5611 5612 5613 5613 5614 5615 5615 5616 5616 5616 5616 5616 5616 5616 5615 5615 5615 5614 5614 5613 5612 5611 5610 5609 5608 5607 5606 5605 5604